Flag for Cabo Verde Weather past 2 weeks in Santa Maria, Cabo Verde

Now
84 °F

Scattered clouds.


Feels Like: 91 °F
Forecast: 78 / 87 °F
Wind: 3 mph from North

Location: Sal

Current Time: Sep 16, 2014 at 10:35:53 AM

Latest Report: Sep 16, 2014 at 10:00 AM


Visibility: N/A

Pressure: 29.98 "Hg

Humidity: 70%

Dew point: 73 °F

Location of Santa MariaLocation

Historic Weather in Santa Maria — Graph

°F

Santa Maria temperature yesterday

Maximum temperature yesterday: 90 °F (at 4:00 PM)
Minimum temperature yesterday: 79 °F (at 12:00 AM)
Average temperature yesterday: 83 °F

Past Weeks' High & Low Weather Summary

 TemperatureHumidityPressure
High91 °F (Sep 13, 11:00 AM)100% (Sep 6, 1:00 AM)30.01 "Hg (Sep 6, 1:00 AM)
Low75 °F (Sep 3, 5:00 AM)52% (Sep 14, 1:00 PM)29.86 "Hg (Sep 4, 4:00 PM)
Average81 °F78%29.93 "Hg
* Reported Sep 1 9:00 AM — Sep 16 9:00 AM, Santa Maria, Weather by CustomWeather, © 2014

Note: Actual official high and low records may vary slightly from our data, if they occured in-between our weather recording intervals... More about our weather records

Advertising

Santa Maria weather history for previous 24 hours

 ConditionsComfort  
Time TempWeatherWind HumidityBarometerVisibility
9:00 AM
Sep 16
84 °FScattered clouds.1 mph66%29.98 "HgN/A
8:00 AM81 °FPassing clouds.1 mph79%29.98 "HgN/A
7:00 AM77 °FScattered clouds.2 mph89%29.95 "HgN/A
6:00 AM77 °FPassing clouds.1 mph89%29.95 "HgN/A
5:00 AM77 °FPassing clouds.5 mph89%29.95 "HgN/A
4:00 AM77 °FPassing clouds.1 mph89%29.95 "HgN/A
3:00 AM77 °FPassing clouds.3 mph89%29.92 "HgN/A
2:00 AM79 °FPassing clouds.3 mph84%29.95 "HgN/A
1:00 AM79 °FPassing clouds.No wind79%29.95 "HgN/A
12:00 AM79 °FPassing clouds.No wind84%29.98 "HgN/A
11:00 PM
Sep 15
79 °FPassing clouds.3 mph79%29.98 "HgN/A
10:00 PM81 °FPassing clouds.5 mph74%29.98 "HgN/A
9:00 PM81 °FPassing clouds.5 mph79%29.95 "HgN/A
8:00 PM81 °FPassing clouds.5 mph79%29.95 "HgN/A
7:00 PM81 °FPassing clouds.6 mph79%29.92 "HgN/A
6:00 PM84 °FPassing clouds.6 mph66%29.92 "HgN/A
5:00 PM88 °FPassing clouds.12 mph62%29.89 "HgN/A
4:00 PM90 °FBroken clouds.6 mph59%29.92 "HgN/A
3:00 PM88 °FBroken clouds.6 mph62%29.92 "HgN/A
2:00 PM88 °FBroken clouds.6 mph62%29.95 "HgN/A
1:00 PM86 °FPartly sunny.5 mph66%29.95 "HgN/A
12:00 PM86 °FPartly sunny.8 mph66%29.98 "HgN/A
11:00 AM88 °FScattered clouds.3 mph62%29.98 "HgN/A
10:00 AM88 °FWarm.2 mph59%29.95 "HgN/A
Weather by CustomWeather, © 2014

See weather overviewHow to use our weather pages